{"data":{"norad_id":62839,"intl_designator":"2025-019L","name":"STARLINK-11524 [DTC]","alt_names":[],"object_type":"PAYLOAD","status":"ACTIVE","operator":null,"country":"US","launch_date":"2025-01-27","launch_site_code":"AFETR","launch_vehicle":null,"mission":null,"orbit_class":"UNKNOWN","rcs_meters":null,"size_class":null,"mass_kg":null,"dimensions":null,"purposes":["comms"],"wikipedia_slug":null,"has_3d_model":false,"image_url":null,"decayed_at":null,"tle_current":{"epoch":"2026-09-21T06:04:56.504928Z","epoch_age_seconds":103151,"freshness":"FRESH","line1":"1 62839U 25019L   26264.25343177 -.00024540  00000+0 -18813-3 0  9997","line2":"2 62839  42.9995 207.5648 0001745 320.1326  39.9413 15.70861663 94638","mean_motion":15.70861663,"eccentricity":0.0001745,"inclination_deg":42.9995,"raan_deg":207.5648,"arg_perigee_deg":320.1326,"mean_anomaly_deg":39.9413,"bstar":-0.00018813,"rev_number":9463,"period_min":91.669434293146,"perigee_km":355.25796288145,"apogee_km":357.60832786219,"semimajor_km":6734.5701453718,"source":"CELESTRAK","updated_at":"2026-09-22T09:00:49.673041Z"}}}